Wind_Speed
12 12 13 12 11 11 10 10 8 8 10 6 4 5 7 8 10 12 13 12 14 14 14 14 14 14 16 16 16 15 14 13 12 12 11 10 10 8
13 13 13 13 13 14 13 13 13 13 12 11 13 14 12 12 12 14 15 17 18 19 19 19 18 19 19 19 19 19 17 17 15 14 12 10 10 9
15 15 15 14 15 15 16 17 18 19 22 19 21 20 19 17 18 19 19 20 21 21 23 24 24 24 23 23 23 23 22 21 18 17 16 15 13 12
16 17 16 16 16 17 18 19 20 22 24 29 27 28 28 25 25 27 27 27 28 27 24 26 29 29 29 28 27 27 26 26 24 23 21 20 18 16
18 19 17 17 18 18 20 22 23 24 26 30 32 31 34 34 34 34 34 34 35 34 34 32 32 32 34 34 33 31 30 30 30 28 26 24 23 21
22 22 22 22 22 21 22 23 24 27 28 32 35 33 33 34 37 36 36 35 36 35 37 37 36 36 36 37 39 38 36 34 34 33 31 30 27 26
26 25 24 24 23 23 24 25 25 27 27 26 27 27 28 25 30 31 32 36 39 37 40 37 35 35 36 35 40 42 43 41 38 37 36 35 33 30
30 28 27 27 27 27 28 27 28 31 33 34 32 32 40 37 32 32 33 34 37 25 32 35 34 41 41 41 42 39 41 44 43 40 39 37 38 35
34 33 32 32 31 31 31 32 33 33 36 38 43 44 46 41 41 42 36 35 39 30 34 50 38 46 47 44 45 44 42 40 45 47 44 41 39 38
38 38 38 38 38 38 37 38 40 41 41 41 42 43 42 37 31 32 36 38 43 42 35 43 37 38 39 40 45 44 44 39 39 45 51 48 44 41
41 41 41 41 40 39 38 40 40 40 38 37 35 32 29 26 26 30 31 34 42 46 30 32 41 40 41 41 40 46 44 41 38 38 47 55 49 46
38 39 39 38 35 33 33 33 36 35 29 26 29 30 26 25 23 25 29 35 38 43 33 34 42 45 47 42 39 37 43 41 44 38 41 50 55 52
32 31 31 27 23 22 23 24 27 23 26 27 28 28 27 26 27 29 31 31 32 37 39 37 43 46 46 53 50 49 52 49 54 41 42 43 54 61
28 26 26 23 19 18 20 24 25 24 26 26 25 29 33 36 31 26 26 26 31 36 37 33 37 38 43 50 50 50 48 51 50 51 45 45 49 61
26 25 21 19 19 21 23 23 22 23 24 25 30 29 28 27 27 28 31 30 28 28 29 31 30 35 37 46 56 54 54 54 51 50 52 50 54 60
23 21 21 20 21 21 22 22 24 30 26 21 23 25 28 28 30 27 24 24 29 27 28 29 27 31 39 41 40 49 47 50 51 47 43 52 55 59
19 21 23 24 24 26 27 27 22 21 20 22 24 26 26 25 22 22 24 21 19 22 25 25 28 29 31 34 34 36 45 47 40 40 50 52 55 60
21 22 22 21 21 21 19 18 18 19 21 22 22 21 19 20 21 20 19 18 19 24 23 25 32 35 32 33 29 38 36 32 30 30 36 38 42 52
20 21 20 19 18 17 18 17 17 19 18 14 15 17 19 19 18 16 14 14 16 19 20 23 30 32 38 37 29 33 35 35 28 10 18 30 36 38
19 19 17 15 14 14 14 14 14 14 14 15 16 15 16 15 13 13 13 18 20 18 17 22 25 27 29 27 27 30 29 26 16 2 16 18 29 37
15 15 15 15 14 14 15 15 14 14 14 14 13 13 12 13 13 17 17 17 16 15 16 19 19 18 18 17 21 24 25 21 6 13 23 35 39 35
13 14 14 13 14 13 13 12 12 12 12 12 14 12 12 13 15 15 16 17 16 15 14 13 12 8 10 13 13 17 23 19 20 23 23 25 29 25
13 12 13 12 11 11 12 11 12 12 14 14 14 15 15 17 18 19 17 16 18 14 10 7 5 6 7 8 9 12 14 17 19 22 20 21 20 14
Wind_Direction
249 251 248 255 265 266 272 273 271 300 308 310 333 323 323 301 289 285 289 287 282 282 283 282 282 277 274 272 270 268 273 280 290 301 307 306 306 300
249 250 248 252 259 262 266 270 272 277 281 296 299 301 301 297 293 287 290 286 280 281 282 282 281 279 277 273 271 269 270 270 275 285 289 285 301 307
251 252 252 255 257 262 263 265 271 276 279 284 290 294 292 293 293 292 290 290 285 281 279 279 279 278 277 276 273 269 266 266 267 273 279 276 282 293
253 257 259 261 261 263 267 270 275 280 282 288 291 292 296 295 293 291 291 290 289 287 282 278 276 275 273 273 271 268 265 259 259 260 264 268 269 278
247 254 257 262 265 267 270 271 275 277 281 283 287 290 294 297 297 296 294 292 290 291 289 285 280 277 274 272 270 268 265 260 256 259 260 260 266 268
242 249 254 258 260 262 266 271 275 276 281 283 284 286 288 291 293 297 296 297 296 297 294 291 288 282 275 271 268 265 263 262 255 254 252 255 259 260
245 248 250 252 259 263 267 272 276 280 282 282 282 285 286 287 292 297 294 298 297 298 298 295 292 290 287 280 270 266 263 261 258 252 249 251 254 257
247 249 252 256 258 261 265 268 273 279 281 281 279 279 284 290 291 294 295 296 295 294 292 295 295 293 291 290 286 277 266 262 257 253 246 248 252 253
251 253 256 259 261 264 268 269 269 270 273 280 281 281 286 290 296 298 295 294 292 291 289 294 290 292 296 293 291 291 282 269 258 254 247 245 244 246
254 256 259 261 264 268 271 273 275 277 277 275 276 282 285 292 293 294 296 295 297 297 292 288 299 290 294 290 297 300 297 288 267 253 249 245 241 240
255 258 261 264 266 267 270 271 273 275 277 281 283 283 286 288 286 290 290 294 296 301 299 289 298 295 300 292 288 290 297 297 293 265 245 244 241 234
255 258 260 262 266 268 269 270 272 275 283 279 282 286 283 281 283 277 287 289 295 299 304 301 303 302 297 294 294 290 290 287 296 274 251 241 237 230
253 255 260 265 264 262 261 261 268 278 277 277 276 278 277 277 286 289 295 296 296 294 298 304 304 300 295 293 294 291 288 279 283 283 266 246 233 231
252 257 261 264 261 250 252 260 264 267 267 270 274 280 287 292 296 296 295 294 296 294 298 296 296 300 302 300 295 298 293 285 283 275 273 253 244 232
249 254 255 255 252 256 259 263 271 274 276 269 274 285 283 288 291 298 300 297 298 300 304 308 309 307 301 297 297 298 295 289 282 275 273 251 253 226
241 243 242 248 255 260 261 263 266 269 265 281 281 283 287 293 299 300 300 305 307 311 317 322 323 317 312 306 303 304 301 289 280 270 263 269 259 238
237 243 247 249 254 262 268 269 267 268 275 276 279 284 290 294 297 301 305 310 312 318 325 334 336 332 324 326 321 317 307 302 293 283 274 246 234 223
242 246 248 249 254 256 257 261 266 269 273 278 281 285 289 293 300 302 306 315 316 328 337 340 343 345 355 360 347 332 339 333 327 301 259 215 198 197
241 243 245 248 240 251 258 262 265 271 274 275 279 286 292 296 297 305 313 317 318 333 345 343 348 355 354 353 358 356 348 355 338 295 200 184 180 176
230 234 232 235 242 247 253 255 258 263 272 280 286 290 293 293 300 303 305 313 327 339 343 345 349 1 0 353 354 5 351 358 354 245 160 155 163 170
224 223 225 233 242 248 252 255 260 266 273 280 286 292 295 295 296 304 309 313 325 337 345 348 350 353 5 6 20 26 26 23 41 134 136 137 130 129
225 232 236 241 246 249 254 260 264 269 273 278 287 288 295 302 306 307 303 305 314 320 333 341 353 7 3 16 37 57 67 74 94 107 120 131 130 133
216 228 237 243 253 258 260 261 267 271 275 280 285 290 294 298 300 301 295 288 301 305 311 315 333 19 40 60 85 91 100 112 120 131 131 129 124 106
Height
1607 1609 1611 1612 1613 1613 1614 1614 1615 1615 1614 1613 1612 1612 1611 1610 1609 1608 1606 1605 1604 1604 1603 1603 1603 1602 1601 1600 1599 1598 1598 1597 1596 1595 1594 1594 1592 1591
1605 1606 1608 1609 1610 1610 1611 1612 1612 1613 1612 1610 1610 1609 1608 1607 1606 1604 1603 1602 1601 1600 1600 1599 1597 1596 1595 1595 1594 1594 1594 1593 1592 1591 1589 1587 1587 1588
1601 1603 1604 1606 1606 1607 1608 1608 1608 1609 1607 1606 1604 1605 1604 1603 1602 1600 1599 1598 1596 1596 1595 1594 1592 1591 1590 1589 1588 1587 1587 1587 1588 1588 1587 1585 1584 1583
1597 1599 1600 1602 1602 1603 1603 1603 1603 1604 1603 1599 1600 1599 1597 1598 1597 1595 1593 1592 1590 1589 1589 1587 1585 1584 1582 1581 1580 1580 1580 1580 1579 1575 1577 1579 1579 1580
1593 1594 1596 1597 1598 1598 1599 1599 1599 1598 1598 1595 1593 1593 1591 1590 1589 1587 1585 1584 1582 1581 1579 1578 1577 1575 1574 1573 1572 1572 1571 1571 1570 1571 1571 1570 1573 1573
1588 1589 1590 1592 1592 1594 1594 1594 1594 1593 1593 1590 1588 1587 1585 1584 1582 1580 1577 1575 1572 1572 1569 1568 1566 1565 1564 1563 1562 1561 1561 1561 1561 1562 1561 1561 1560 1562
1582 1583 1584 1585 1587 1588 1588 1589 1589 1588 1587 1585 1582 1580 1578 1578 1576 1574 1571 1567 1565 1563 1559 1557 1556 1553 1551 1550 1550 1549 1549 1549 1550 1550 1552 1552 1552 1551
1575 1577 1578 1579 1580 1581 1582 1583 1584 1582 1580 1579 1576 1573 1571 1571 1571 1569 1565 1561 1555 1560 1551 1546 1546 1542 1540 1539 1536 1535 1535 1536 1537 1538 1540 1542 1543 1544
1568 1570 1571 1572 1573 1574 1574 1575 1575 1575 1574 1573 1567 1566 1563 1565 1563 1560 1558 1554 1547 1551 1548 1534 1537 1528 1527 1525 1523 1523 1523 1524 1526 1527 1528 1530 1530 1533
1560 1562 1563 1564 1565 1566 1567 1565 1564 1563 1562 1562 1560 1558 1557 1557 1556 1554 1550 1545 1538 1537 1538 1526 1526 1520 1518 1514 1510 1510 1508 1508 1510 1512 1516 1518 1519 1522
1551 1552 1553 1554 1555 1558 1558 1556 1554 1553 1553 1552 1552 1550 1550 1550 1550 1546 1543 1540 1532 1525 1530 1522 1516 1511 1508 1502 1500 1495 1495 1493 1494 1495 1497 1502 1506 1509
1541 1541 1542 1544 1546 1548 1547 1547 1544 1544 1547 1545 1544 1541 1542 1542 1542 1540 1538 1533 1530 1522 1521 1516 1510 1506 1492 1489 1487 1486 1481 1480 1481 1480 1479 1483 1491 1494
1532 1533 1533 1535 1538 1539 1539 1538 1537 1540 1538 1537 1536 1535 1534 1534 1533 1532 1530 1527 1523 1517 1515 1511 1502 1497 1491 1475 1474 1471 1467 1464 1462 1466 1466 1468 1472 1474
1524 1526 1527 1528 1530 1531 1532 1532 1532 1532 1530 1529 1528 1527 1526 1524 1523 1522 1520 1517 1514 1510 1506 1503 1496 1491 1481 1467 1459 1457 1451 1444 1445 1441 1445 1448 1451 1456
1517 1519 1521 1522 1523 1524 1525 1525 1524 1523 1522 1522 1521 1521 1519 1516 1516 1515 1512 1509 1506 1502 1498 1494 1489 1483 1477 1465 1450 1446 1439 1434 1427 1427 1428 1429 1432 1431
1509 1511 1513 1514 1515 1516 1517 1517 1517 1516 1514 1514 1514 1513 1512 1510 1509 1506 1503 1501 1498 1494 1492 1487 1482 1475 1465 1458 1449 1433 1430 1422 1417 1411 1412 1413 1415 1416
1504 1505 1506 1507 1508 1509 1510 1509 1508 1508 1508 1508 1508 1506 1505 1504 1502 1500 1497 1495 1492 1487 1483 1479 1475 1469 1461 1449 1438 1433 1421 1412 1409 1405 1400 1396 1397 1402
1497 1498 1500 1500 1501 1502 1503 1503 1503 1502 1502 1502 1502 1500 1499 1498 1497 1494 1492 1489 1485 1481 1476 1472 1465 1457 1453 1447 1438 1426 1417 1405 1396 1391 1388 1391 1395 1400
1492 1493 1494 1494 1495 1497 1498 1498 1498 1496 1496 1496 1496 1495 1494 1493 1492 1490 1488 1485 1482 1477 1474 1469 1462 1453 1443 1437 1433 1427 1415 1404 1395 1390 1391 1394 1399 1408
1487 1489 1489 1489 1491 1492 1492 1493 1493 1492 1492 1491 1491 1491 1490 1488 1488 1487 1485 1480 1477 1474 1472 1469 1463 1456 1448 1441 1432 1424 1421 1410 1406 1405 1402 1404 1411 1421
1483 1484 1484 1485 1486 1486 1487 1487 1488 1488 1488 1487 1487 1486 1486 1485 1483 1481 1479 1476 1474 1471 1468 1464 1462 1458 1452 1447 1440 1433 1427 1419 1419 1419 1418 1418 1425 1434
1480 1480 1481 1481 1481 1482 1482 1483 1483 1483 1483 1483 1482 1482 1481 1480 1478 1477 1474 1472 1470 1469 1467 1463 1459 1457 1455 1450 1446 1440 1436 1433 1435 1438 1435 1435 1436 1440
1474 1476 1476 1477 1478 1479 1478 1479 1479 1479 1478 1479 1478 1478 1477 1475 1474 1472 1470 1469 1466 1465 1464 1463 1461 1457 1454 1452 1450 1447 1442 1441 1444 1442 1441 1444 1447 1449